www.pogodaiklimat.ru

Погода и климат >> Архив погоды >> Австралия >> Onslow Airport


ПОГОДА в Onslow Airport

  • Прогноз погоды в Onslow Airport
  • Монитор погоды в Onslow Airport
  • Климат города

АРХИВ ПОГОДЫ в Onslow Airport

Время (UTC), дата Ветер
(напр.,м/с)
 
Видим.   Явления Облачность Т
(С)
Тd
(С)
f
(%)
Тe
(С)
Тes
(С)
Комфортность P
(гПа)
Po
(гПа)
Тmin
(С)
Tmax
(С)
R
(мм)
R24
(мм)
S
(см)
04 17.05 В 3 н/о н/о +30.0 +7.2 24 +29 +29 жарко 1014.4 1013.1
06 17.05 СЗ 4 н/о н/о +30.7 +7.8 24 +30 +30 жарко 1012.7 1011.4
07 17.05 СЗ 6 н/о н/о +30.0 +7.2 24 +29 +29 жарко 1012.8 1011.5
09 17.05 З 6 н/о н/о +26.6 +15.0 49 +29 +29 жарко 1013.4 1012.1
10 17.05 З 4 н/о н/о +24.3 +15.8 59 +27 +27 жарко 1014.0 1012.7
12 17.05 З 5 н/о н/о +22.4 +16.4 69 +27 +27 душно 1015.4 1014.1
13 17.05 З 4 н/о н/о +21.6 +16.6 73 +25 +25 комфорт 1015.4 1014.1 +31.6
15 17.05 ЮЗ 4 н/о н/о +20.9 +16.5 76 +25 +25 комфорт 1015.6 1014.3
16 17.05 ЮЗ 4 н/о н/о +19.8 +16.3 80 +22 +22 комфорт 1015.2 1013.9
18 17.05 ЮВ 3 н/о н/о +18.2 +15.1 82 +19 +19 1014.8 1013.5
19 17.05 ЮВ 3 н/о н/о +17.6 +13.9 79 +18 +18 1014.6 1013.3
21 17.05 ЮВ 4 н/о н/о +17.0 +12.9 77 +17 +17 1015.2 1013.9
22 17.05 ЮВ 3 н/о н/о +16.7 +13.8 83 +16 +16 1015.8 1014.5
00 18.05 В 6 н/о н/о +20.8 +16.0 74 +24 +24 комфорт 1016.9 1015.6
01 18.05 В 6 н/о н/о +24.0 +16.5 63 +27 +27 жарко 1017.4 1016.1 +16.7
03 18.05 СВ 8 н/о н/о +27.0 +12.6 41 +29 +29 жарко 1017.6 1016.3
04 18.05 СВ 8 н/о н/о +27.7 +12.5 39 +29 +29 жарко 1016.9 1015.6
06 18.05 С 9 н/о н/о +27.7 +12.9 40 +29 +29 жарко 1015.7 1014.4
07 18.05 С 8 н/о н/о +27.7 +14.3 44 +30 +30 жарко 1015.6 1014.3
09 18.05 С 6 н/о н/о +25.7 +17.4 60 +30 +30 душно 1015.8 1014.5
10 18.05 С 4 н/о н/о +24.0 +17.5 67 +28 +28 душно 1016.4 1015.1
12 18.05 С 3 н/о н/о +22.5 +18.1 76 +28 +28 душно 1017.2 1015.9
13 18.05 С 3 н/о н/о +21.8 +18.8 83 +27 +27 душно 1017.3 1016.0 +29.0
15 18.05 СЗ 2 н/о н/о +21.4 +19.3 88 +26 +26 душно 1017.1 1015.8
16 18.05 Ю 2 н/о н/о +20.4 +18.7 90 +25 +25 комфорт 1016.9 1015.6
18 18.05 ЮВ 2 н/о н/о +18.6 +16.6 88 +20 +20 1016.8 1015.5
19 18.05 ЮВ 3 н/о н/о +18.6 +16.8 89 +20 +20 1016.6 1015.3
21 18.05 ЮВ 3 н/о н/о +18.8 +16.9 89 +20 +20 1016.6 1015.3
22 18.05 В 3 н/о н/о +18.6 +16.6 88 +20 +20 1016.8 1015.5
00 19.05 В 4 н/о н/о +21.9 +17.5 76 +26 +26 душно 1017.5 1016.2
01 19.05 В 4 н/о н/о +23.9 +17.6 68 +28 +28 душно 1017.9 1016.6 +18.2
03 19.05 СВ 3 н/о н/о +27.5 +18.2 57 +32 +32 очень
душно
1017.0 1015.7
04 19.05 С 5 н/о н/о +28.7 +17.6 51 +33 +33 очень
душно
1016.2 1014.9
06 19.05 С 6 н/о н/о +28.4 +17.9 53 +33 +33 очень
душно
1014.6 1013.3
07 19.05 СЗ 6 н/о н/о +27.4 +17.8 56 +32 +32 очень
душно
1014.3 1013.0
09 19.05 СЗ 5 н/о н/о +25.7 +17.1 59 +30 +30 душно 1014.4 1013.1
10 19.05 СЗ 4 н/о н/о +24.1 +17.6 67 +28 +28 душно 1014.4 1013.1
12 19.05 З 3 н/о н/о +23.0 +18.3 75 +29 +29 очень
душно
1015.3 1014.0
13 19.05 З 4 н/о н/о +23.0 +19.6 81 +30 +30 очень
душно
1015.4 1014.1 +29.5
15 19.05 ЮЗ 5 н/о н/о +22.1 +17.2 74 +27 +27 душно 1015.6 1014.3
16 19.05 ЮЗ 4 н/о н/о +21.1 +17.1 78 +25 +25 комфорт 1015.0 1013.7
18 19.05 ЮЗ 4 н/о н/о +20.2 +16.6 80 +23 +23 комфорт 1014.1 1012.8
19 19.05 ЮЗ 4 н/о н/о +19.6 +16.3 81 +22 +22 комфорт 1013.9 1012.6
21 19.05 ЮЗ 5 н/о н/о +18.8 +15.7 82 +20 +20 1014.0 1012.7
22 19.05 ЮЗ 5 н/о н/о +18.5 +15.6 83 +19 +19 1014.2 1012.9
00 20.05 Ю 5 н/о н/о +20.2 +15.8 76 +23 +23 комфорт 1015.2 1013.9
01 20.05 Ю 5 н/о н/о +22.7 +16.0 66 +27 +27 душно 1015.5 1014.2 +18.5
03 20.05 ЮВ 4 н/о н/о +27.1 +14.5 46 +30 +30 душно 1014.7 1013.4
04 20.05 Ю 4 н/о н/о +28.3 +12.2 37 +29 +29 жарко 1013.7 1012.4
06 20.05 СЗ 6 н/о н/о +28.6 +15.8 46 +32 +32 душно 1011.6 1010.3
07 20.05 СЗ 7 н/о н/о +27.3 +16.6 52 +31 +31 душно 1011.3 1010.0
09 20.05 З 7 н/о н/о +25.3 +18.2 65 +30 +30 душно 1011.2 1009.9
10 20.05 З 6 н/о н/о +24.2 +17.9 68 +28 +28 душно 1011.2 1009.9
12 20.05 ЮЗ 4 н/о н/о +22.6 +14.7 61 +26 +26 жарко 1012.1 1010.8
13 20.05 ЮЗ 5 н/о н/о +22.5 +11.9 51 +25 +25 комфорт 1012.4 1011.1 +30.0
15 20.05 ЮЗ 6 н/о н/о +21.9 +10.7 49 +24 +24 комфорт 1012.3 1011.0
16 20.05 ЮЗ 6 н/о н/о +21.0 +12.7 59 +23 +23 комфорт 1012.0 1010.7
18 20.05 Ю 6 н/о н/о +20.3 +14.0 67 +22 +22 комфорт 1011.6 1010.3
19 20.05 Ю 6 н/о н/о +20.0 +13.5 66 +22 +22 комфорт 1011.4 1010.1
21 20.05 Ю 7 н/о н/о +19.6 +12.4 63 +21 +21 комфорт 1011.9 1010.6
22 20.05 Ю 5 н/о н/о +19.2 +12.0 63 +20 +20 1012.4 1011.1
00 21.05 Ю 5 н/о н/о +19.7 +12.0 61 +21 +21 комфорт 1013.8 1012.5
01 21.05 Ю 6 н/о н/о +22.0 +12.0 53 +24 +24 комфорт 1014.3 1013.0 +18.6
03 21.05 Ю 7 н/о н/о +26.3 +10.0 36 +27 +27 жарко 1013.7 1012.4
04 21.05 Ю 6 н/о н/о +27.2 +10.4 35 +28 +28 жарко 1013.0 1011.7
06 21.05 ЮЗ 6 н/о н/о +29.2 +10.3 31 +29 +29 жарко 1011.6 1010.3
07 21.05 ЮЗ 5 н/о н/о +28.8 +9.0 29 +29 +29 жарко 1011.3 1010.0
09 21.05 ЮЗ 6 н/о н/о +27.5 +8.4 30 +27 +27 жарко 1011.9 1010.6
10 21.05 З 5 н/о н/о +24.1 +13.9 53 +26 +26 жарко 1012.4 1011.1
12 21.05 Ю 4 н/о н/о +22.0 +11.4 51 +24 +24 комфорт 1014.1 1012.8
13 21.05 Ю 5 н/о н/о +21.6 +11.0 51 +23 +23 комфорт 1014.7 1013.4 +29.7
15 21.05 ЮЗ 6 н/о н/о +19.9 +11.1 57 +21 +21 комфорт 1015.1 1013.8
16 21.05 Ю 5 н/о н/о +18.9 +11.2 61 +19 +19 1015.2 1013.9
18 21.05 Ю 6 н/о н/о +18.1 +11.0 63 +18 +18 1015.2 1013.9
19 21.05 Ю 5 н/о н/о +17.5 +10.6 64 +17 +17 1015.4 1014.1
21 21.05 Ю 5 н/о н/о +16.8 +10.6 67 +16 +16 1016.2 1014.9
22 21.05 Ю 5 н/о н/о +16.3 +10.4 68 +15 +15 1016.8 1015.5
00 22.05 Ю 5 н/о н/о +18.8 +10.9 60 +19 +19 1018.2 1016.9
01 22.05 ЮВ 5 н/о н/о +21.4 +10.9 51 +23 +23 комфорт 1018.4 1017.1 +16.1
03 22.05 ЮВ 6 н/о н/о +25.5 +8.9 35 +26 +26 жарко 1017.9 1016.6
04 22.05 Ю 5 н/о н/о +26.7 +6.7 28 +26 +26 жарко 1017.0 1015.7
06 22.05 ЮВ 4 н/о н/о +28.5 +4.7 22 +27 +27 жарко 1015.3 1014.0
07 22.05 Ю 3 н/о н/о +28.1 +4.4 22 +27 +27 жарко 1014.9 1013.6
09 22.05 З 7 н/о н/о +24.1 +13.6 52 +26 +26 жарко 1015.0 1013.7
10 22.05 З 4 н/о н/о +22.1 +15.0 64 +26 +26 душно 1015.5 1014.2
12 22.05 З 4 н/о н/о +19.6 +13.1 66 +21 +21 комфорт 1016.7 1015.4
13 22.05 ЮЗ 4 н/о н/о +19.0 +11.8 63 +20 +20 1017.1 1015.8 +29.1
15 22.05 ЮЗ 4 н/о н/о +19.0 +8.6 51 +20 +20 1017.5 1016.2
16 22.05 Ю 4 н/о н/о +18.1 +9.2 56 +18 +18 1017.2 1015.9
18 22.05 Ю 5 н/о н/о +17.5 +9.2 58 +17 +17 1017.0 1015.7
19 22.05 Ю 5 н/о н/о +17.0 +8.9 59 +16 +16 1016.7 1015.4
21 22.05 Ю 5 н/о н/о +16.3 +8.3 59 +15 +15 1016.4 1015.1
22 22.05 Ю 6 н/о н/о +15.6 +7.9 60 +14 +14 1016.7 1015.4
00 23.05 Ю 4 н/о н/о +18.4 +8.7 53 +19 +19 1018.0 1016.7
01 23.05 Ю 5 н/о н/о +21.3 +8.6 44 +22 +22 комфорт 1018.2 1016.9 +15.5
03 23.05 ЮВ 4 н/о н/о +28.7 +7.3 26 +28 +28 жарко 1017.3 1016.0
04 23.05 В 3 н/о н/о +30.1 +5.4 21 +28 +28 жарко 1016.7 1015.4
06 23.05 СЗ 5 н/о н/о +30.1 +7.3 24 +29 +29 жарко 1014.8 1013.5
07 23.05 СЗ 6 н/о н/о +28.0 +12.8 39 +29 +29 жарко 1014.4 1013.1
09 23.05 СЗ 5 н/о н/о +25.6 +15.3 53 +29 +29 душно 1014.5 1013.2
10 23.05 З 4 н/о н/о +22.9 +16.9 69 +28 +28 душно 1015.2 1013.9
12 23.05 ЮЗ 4 н/о н/о +20.8 +13.7 64 +24 +24 комфорт 1016.1 1014.8
13 23.05 ЮЗ 3 н/о н/о +20.6 +9.5 49 +23 +23 комфорт 1016.8 1015.5 +31.3
15 23.05 Ю 3 н/о н/о +19.1 +9.3 53 +20 +20 1017.0 1015.7
16 23.05 Ю 3 н/о н/о +19.1 +9.6 54 +20 +20 1016.6 1015.3
18 23.05 Ю 3 н/о н/о +17.6 +9.0 57 +18 +18 1015.6 1014.3
19 23.05 Ю 2 н/о н/о +17.1 +7.7 54 +17 +17 1015.4 1014.1
21 23.05 Ю 3 н/о н/о +15.9 +10.7 71 +15 +15 1015.4 1014.1
22 23.05 ЮВ 3 н/о н/о +15.4 +8.9 65 +15 +15 1015.8 1014.5
00 24.05 В 3 н/о н/о +19.7 +9.9 53 +21 +21 комфорт 1017.0 1015.7
01 24.05 В 5 н/о н/о +23.8 +10.1 42 +25 +25 комфорт 1017.2 1015.9 +15.3
03 24.05 СВ 5 н/о н/о +27.8 +13.0 40 +29 +29 жарко 1016.9 1015.6
04 24.05 С 6 н/о н/о +28.2 +15.8 47 +31 +31 душно 1016.2 1014.9

 

Местоположение метеостанции Onslow Airport (Западная Австралия, Австралия): широта -21.67 долгота 115.12 высота над уровнем моря 4 м.

В архиве по умолчанию представлена погода в Onslow Airport за последнюю неделю. Архивные данные за месяц целиком и за предыдущие месяцы, начиная с января 2011 года, Вы можете получить, выбрав интересующий диапазон дат из раскрывающегося списка и нажав кнопку "Ввод!".

Внимание! Время в таблицах - всемирное. Для получения местного времени необходимо прибавить поправку, которая в Onslow Airport равна 8 ч.

Смотрите также архив погоды в соседних городах и на ближайших метеорологических станциях:

Погода в Thevenard Island (Западная Австралия, Австралия) (27 км)
Погода в Barrow Island Airport (Западная Австралия, Австралия) (93 км)
Погода в Mardie (Западная Австралия, Австралия) (104 км)
Погода в Varanus Island (Западная Австралия, Австралия) (123 км)
Погода в Learmonth Airport (Западная Австралия, Австралия) (124 км)
Погода в Karratha Aero (Западная Австралия, Австралия) (201 км)
Погода в Roebourne Aero (Западная Австралия, Австралия) (234 км)
Погода в Paraburdoo Aero (Западная Австралия, Австралия) (318 км)
Погода в Carnarvon Airport (Западная Австралия, Австралия) (387 км)
Погода в Port Hedland Apardoo (Западная Австралия, Австралия) (392 км)

Пояснения к столбцам:

Ветер - указаны скорость ветра в м/с - средняя за 10 мин, порывы в срок и между сроками (в фигурных скобках) и направление, откуда дует ветер: С - северный, СВ - северо-восточный, В - восточный, ЮВ - юго-восточный, Ю - южный, ЮЗ - юго-западный, З - западный, СЗ - северо-западный.
Видимость - горизонтальная дальность видимости в метрах или километрах. При видимости от 1 до 10 км при отсутствии осадков обычно наблюдается дымка, при ухудшении видимости до 1 км и менее - туман. В сухую погоду видимость может ухудшаться дымом, пылью или мглою.
Явления - указаны атмосферные явления, наблюдавшиеся в срок или в последний час перед сроком; фигурными скобками обозначены явления, наблюдавшиеся между сроками (за 1-3 часа до срока); квадратными скобками обозначены град или гололедные отложения с указанием их диаметра в мм.
Облачность - указаны через наклонную черту общая и нижняя облачность в баллах и высота нижней границы облаков в метрах; квадратными скобками обозначены формы облаков: Ci - перистые, Cs - перисто-слоистые, Cc - перисто-кучевые, Ac - высококучевые, As - высокослоистые, Sc - слоисто-кучевые, Ns - слоисто-дождевые, Cu - кучевые, Cb - кучево-дождевые. Подробнее классификацию облаков см. в Атласе облаков (PDF).
T - Температура воздуха - температура, измеренная на высоте 2 м над землей.
Td - Температура точки росы - температура, при понижении до которой содержащийся в воздухе водяной пар достигнет насыщения.
f - Относительная влажность воздуха - влажноcть воздуха, измеренная на высоте 2 м над землей.
Te - Эффективная температура - температура, которую ощущает одетый по сезону человек в тени. Характеристика душности погоды. При расчете учитывается влияние влажности воздуха и скорости ветра на теплоощущения человека.
Tes - Эффективная температура на солнце - температура, которую ощущает человек, с поправкой на солнечный нагрев. Характеристика знойности погоды. Зависит от высоты солнца над горизонтом, облачности и скорости ветра. Ночью, в пасмурную погоду, а также при ветре 12 м/с и более поправка равна нулю.
P - Атмосферное давление - приведенное к уровню моря атмосферное давление.
Po - Атмосферное давление - измеренное на уровне метеостанции атмосферное давление.
Tmin - Минимальная температура - минимум температуры воздуха на высоте 2 м над землей.
Tmax - Максимальная температура - максимум температуры воздуха на высоте 2 м над землей.
R - Количество осадков - Количество выпавших осадков за период времени, мм. При наведении курсора мыши на число - период времени, за который выпало указанное количество осадков.
R24 - Количество осадков - Количество выпавших осадков за 24 часа, мм.
S - Снежный покров - Высота снежного покрова, см. При наведении курсора мыши на число - состояние снежного покрова и степень покрытия местности в баллах.